Regional Weather Roundup
Issued by NWS

Home | Current Version | Previous Version | Text Only | Print | Product List | Glossary Off
Versions: 1 2 3 4 5 6 7 8 9 10 11 12 13 14 15 16 17 18 19 20 21 22 23 24 25 26 27 28 29 30 31 32 33 34 35 36 37 38 39 40 41 42 43 44 45 46 47 48 49 50

142
ASUS45 KABQ 041610
RWRNM
NEW MEXICO REGIONAL WEATHER ROUNDUP
NATIONAL WEATHER SERVICE ALBUQUERQUE NM
1000 AM MDT WED MAY 04 2016

NOTE: "FAIR" MEANS FEW OR NO CLOUDS BELOW 12,000 FEET AGL WITH NO
       SIGNIFICANT WEATHER OR OBSTRUCTIONS TO VISION.

      THIS PRODUCT IS RELEASED AS TWO VERSIONS.  ONE VERSION NEAR
      THE TOP OF THE HOUR CONTAINING PRELIMINARY DATA FROM ALBUQUERQUE
      AND OTHER STATIONS.  A FINAL VERSION WITH ADDITIONAL DATA IS
      ISSUED ABOUT 10 MINUTES AFTER THE HOUR.

NMZ501-503-504-510>518-041700-
NORTHWEST PLATEAU/NORTHCENTRAL MOUNTAINS

CITY           SKY/WX    TMP DP  RH WIND       PRES   REMARKS
FARMINGTON     FAIR      61  35  37 VRB5      30.30S
LOS ALAMOS     FAIR      54  22  28 E3        30.41F
SANTA FE       FAIR      61  24  24 E6        30.36F
TAOS           FAIR      54  30  40 CALM      30.40F
ANGEL FIRE     FAIR      49  32  51 CALM      30.44F

$$
NMZ402-403-502-505>509-041700-
WESTCENTRAL MOUNTAINS/SOUTHWEST MOUNTAINS

CITY           SKY/WX    TMP DP  RH WIND       PRES   REMARKS
GALLUP         FAIR      61  34  36 W5        30.33S
GRANTS         FAIR      60  32  34 SE9G17    30.38S
SILVER CITY      N/A     66  28  24 SE18G26   30.33R

$$
NMZ407-409-411-412-041700-
SOUTHERN DESERTS

CITY           SKY/WX    TMP DP  RH WIND       PRES   REMARKS
LORDSBURG      FAIR      72  32  23 SE30G37   30.23S
DEMING         FAIR      70  35  27 E13G18    30.27R
LAS CRUCES     FAIR      70  32  24 E10       30.29R
HOLLOMAN AFB   FAIR      69  31  24 VRB3      30.27R
ALAMOGORDO     FAIR      64  32  29 W3        30.29S
T OR C         FAIR      66  31  27 E3        30.29S

$$
NMZ519>523-041700-
CENTRAL VALLEYS/CENTRAL HIGHLANDS

CITY           SKY/WX    TMP DP  RH WIND       PRES   REMARKS
ALBUQUERQUE    FAIR      63  31  30 NW7       30.33S
DOUBLE EAGLE   SUNNY     61  30  31 CALM      30.35S
MORIARTY ARPT  FAIR      61  23  23 S5        30.38S
CLINES CORNERS FAIR      59  24  26 CALM      30.37S
BELEN          FAIR      64  31  28 N5        30.33S
SOCORRO        FAIR      66  29  25 N8        30.31S

$$
NMZ524>526-539-540-041700-
SOUTHCENTRAL MOUNTAINS

CITY           SKY/WX    TMP DP  RH WIND       PRES   REMARKS
RUIDOSO          N/A     59  27  29 SE7       30.40S

$$
NMZ527>531-041700-
NORTHEAST HIGHLANDS/NORTHEAST PLAINS

CITY           SKY/WX    TMP DP  RH WIND       PRES   REMARKS
LAS VEGAS      FAIR      57  28  33 S8        30.37F
RATON          FAIR      60  29  30 S5        30.33F
CLAYTON        FAIR      69  34  27 N10       30.27S

$$
NMZ532>537-041700-
EASTCENTRAL PLAINS

CITY           SKY/WX    TMP DP  RH WIND       PRES   REMARKS
TUCUMCARI      FAIR      70  30  22 W14       30.25F
CANNON AFB     FAIR      70  32  24 N13G18    30.26S
CLOVIS AIRPORT FAIR      70  36  28 NW12      30.27S

$$
NMZ028-029-538-041700-
SOUTHEAST PLAINS

CITY           SKY/WX    TMP DP  RH WIND       PRES   REMARKS
ROSWELL        FAIR      66  35  31 VRB3      30.27S
ARTESIA        FAIR      68  36  30 CALM      30.27F
CARLSBAD       FAIR      69  38  32 NW5       30.25S
HOBBS          SUNNY     72  28  20 NW7       30.26S


$$




USA.gov is the U.S. government's official web portal to all federal, state and local government web resources and services.